Location: Unspecified
(0.0000°N, 0.0000°E)
Time: 04:54:55
(UTC+00:00)

Tiros 1 - Pass Details

Date: 02 October 2020
Orbit: 630 x 663 km, 48.4° (Epoch: 28 October)

Event Time Altitude Azimuth Distance (km) Brightness Sun altitude
Rises 21:54:04 0° 320° (NW) 2,979 - -61.0°
Reaches altitude 10° 21:56:25 10° 319° (NW) 2,068 - -61.6°
Maximum altitude 22:01:12 83° 233° (SW) 667 - -62.8°
Drops below altitude 10° 22:05:59 10° 144° (SE) 2,065 - -63.9°
Sets 22:08:19 0° 143° (SE) 2,974 - -64.5°
